Weather in Kunming

China     25°02′47″N   102°42′40″E
temp.,
°C
wind,
m/s
gust,
m/s
humid.,
%
clouds,
%
prec.,
mm/h
press.,
hPa
HPBL,
m
25 january, tue
tue2523:00+10ssw510685 0.0 1011795
02:00+9sw39745 0.0 1012466
05:00+8sw24805 0.0 1011149
08:00+7sw12845 0.0 101373
11:00+12sw5106037 0.1 10121524
14:00+15wsw7124468 0.3 10082227
17:00+14wsw61149100 0.0 10072234
20:00+11sw597017 0.1 1009700
26 january, wed
wed2623:00+11sw5117279 0.4 10111284
02:00+9sw411801 0.7 1011629
05:00+9sw310795 0.1 1010436
08:00+8sw25845 0.2 1012123
11:00+13sw511565 0.1 10121786
14:00+16sw812365 0.1 10082391
17:00+16sw7124196 0.0 10062476
20:00+13sw6115295 0.0 10091781
27 january, thu
thu2723:00+11sw396412 0.1 1011431
02:00+10sw26702 0.1 1012287
05:00+9sw27730 0.0 1011317
08:00+8sw25770 0.0 1013149
11:00+13sw511485 0.0 10131800
14:00+16wsw7123482 0.0 10092733
17:00+15wsw7123794 0.0 10082636
20:00+12sw48535 0.0 10111003
28 january, fri
fri2823:00+10ssw37695 0.0 1012336
02:00+9ssw27775 0.1 1012256
05:00+8sw25830 0.3 1012165
08:00+7wsw22855 0.4 101348
11:00+12sw49645 0.4 10131274
14:00+16sw8123766 0.8 10072676
17:00+13sw6105597 0.4 10071630
20:00+10wsw3974100 1.9 1010665
29 january, sat
sat2923:00+10wsw51171100 1.0 1011991
02:00+9wsw411760 1.3 1010666
05:00+7sw12810 0.0 101061
08:00+6n11855 0.0 101258
11:00+11w12602 0.1 1012608
14:00+14sw253929 0.1 10071902
17:00+15sw563568 0.0 10042394
20:00+12wsw374785 0.0 1008837